Regional Weather Roundup
Issued by NWS

Home | Current Version | Previous Version | Text Only | Print | Product List | Glossary On
Versions: 1 2 3 4 5 6 7 8 9 10 11 12 13 14 15 16 17 18 19 20 21 22 23 24 25 26 27 28 29 30 31 32 33 34 35 36 37 38 39 40 41 42 43 44 45 46 47 48 49 50
000
ASUS43 KMPX 201301
RWRMN
WEATHER ROUNDUP FOR MINNESOTA
NATIONAL WEATHER SERVICE TWIN CITIES/CHANHASSEN MN
800 AM CDT SUN APR 20 2014


NOTE: "FAIR" INDICATES FEW OR NO CLOUDS BELOW 12,000 FEET WITH NO
SIGNIFICANT WEATHER AND/OR OBSTRUCTIONS TO VISIBILITY. N/A MEANS
CURRENT SKY AND/OR WEATHER CONDITIONS ARE NOT AVAILABLE.

MNZ060>063-068>070-201400-
   Twin Cities Metro

CITY           SKY/WX    TMP DP  RH WIND       PRES   REMARKS
TWIN CITIES    PTSUNNY   48  48 100 N6        30.05R
ST PAUL        MOSUNNY   51  49  92 CALM      30.06S FOG
CRYSTAL        SUNNY     46  46 100 CALM      30.04S
BLAINE         SUNNY     48  48 100 CALM      30.05S FOG
EDEN PRAIRIE   SUNNY     51  47  86 N5        30.03S
LAKEVILLE        N/A     50  50 100 N3        30.04R FOG
SOUTH ST PAUL  MOSUNNY   53  52  94 N6        30.05R FOG
LAKE ELMO      FAIR      50  50 100 N6        30.06S
$$
MNZ001>005-007-008-013>017-022>024-027-028-201400-
   Northwest Minnesota

CITY           SKY/WX    TMP DP  RH WIND       PRES   REMARKS
BEMIDJI        SUNNY     35  34  94 CALM      30.04S
HALLOCK        CLOUDY    34  32  93 CALM      30.04S FOG
ROSEAU         SUNNY     36  30  80 CALM      30.04S
WARROAD        SUNNY     36  32  87 W3        30.04S
THIEF RVR FALL SUNNY     36  32  87 CALM      30.05R
CROOKSTON      SUNNY     37  34  87 CALM      30.06R
FOSSTON        SUNNY     37  30  75 CALM      30.04S
DETROIT LAKES  SUNNY     39  36  87 SE5       30.05S
MOORHEAD       SUNNY     37  37 100 CALM      30.04S
PARK RAPIDS    SUNNY     36  33  89 CALM      30.04S
$$
MNZ006-009>011-018-025>026-201400-
   North Central Minnesota

CITY           SKY/WX    TMP DP  RH WIND       PRES   REMARKS
BAUDETTE       SUNNY     35  32  88 CALM      30.05R
FLAG ISLAND    SUNNY     34  28  80 W6        30.03R WCI  29
INTL FALLS     SUNNY     37  32  82 SW5       30.04R
WASKISH        SUNNY     36  36 100 CALM      30.05R
BIG FORK       SUNNY     36  34  93 CALM      30.05S
LONGVILLE      SUNNY     34  34 100 CALM      30.05S
GRAND RAPIDS   SUNNY     37  36  93 CALM      30.05S
CRANE LAKE     SUNNY     28  27  93 CALM      30.06S
ORR            SUNNY     34  32  93 CALM      30.02S
COOK           SUNNY     36  36 100 CALM      30.05S
$$
MNZ012-019>021-037-201400-
   Northeast Minnesota

CITY           SKY/WX    TMP DP  RH WIND       PRES   REMARKS
DULUTH         SUNNY     41  36  82 N8        30.04R
ELY            SUNNY     36  34  93 CALM      30.04S
HIBBING        SUNNY     37  33  85 CALM      30.05R
EVELETH        SUNNY     32  32 100 CALM      30.06R
DULUTH HARBOR  SUNNY     32  30  93 CALM      30.07S
TWO HARBORS    SUNNY     34  28  80 CALM      30.02S HAZE
SILVER BAY     SUNNY     36  36 100 CALM      30.02R
GRAND MARAIS     N/A     38  35  89 SW5       30.02S
G MARAIS ARPRT SUNNY     39  34  81 NW10      30.01S
$$
MNZ029>031-032-039>041-046>048-054>057-064-201400-
   West Central Minnesota

CITY           SKY/WX    TMP DP  RH WIND       PRES   REMARKS
FERGUS FALLS   SUNNY     45  30  57 SE5       30.02S
WHEATON        SUNNY     45  39  81 CALM      30.06F
MORRIS         SUNNY     45  36  70 E6        30.03S
ALEXANDRIA     SUNNY     45  36  70 E6        30.05S
ELBOW LAKE     FAIR      43  35  72 E9        30.04S
WADENA         SUNNY     36  36 100 CALM      30.05S
GLENWOOD       SUNNY     43  36  75 NE7       30.05S
APPLETON       SUNNY     39  36  87 CALM      30.03S
BENSON         SUNNY     45  36  70 E6        30.03F
ORTONVILLE     SUNNY     41  34  75 CALM      30.04S
MADISON        SUNNY     43  37  81 CALM      30.03S
WILLMAR        FAIR      45  37  76 NE9       30.04F
$$
MNZ033>034-036-042>043-049>051-058-059-201400-
   Central Minnesota

CITY           SKY/WX    TMP DP  RH WIND       PRES   REMARKS
ST CLOUD       MOSUNNY   41  38  89 CALM      30.04S
SAUK CENTRE    FAIR      38  35  89 CALM      30.05S
PAYNESVILLE    MOSUNNY   40  36  83 CALM      30.05S
AITKIN         SUNNY     39  34  81 CALM      30.04F
PINE RIVER     SUNNY     34  30  86 CALM      30.08S
BRAINERD       SUNNY     42  34  73 CALM      30.06S
STAPLES        SUNNY     37  36  93 CALM      30.05S
LONG PRAIRIE   FAIR      36  34  93 CALM      30.06S
LITTLE FALLS   SUNNY     36  34  93 CALM      30.06S
LITCHFIELD     MOSUNNY   45  43  93 NE3       30.04S
BUFFALO        MOSUNNY   46  40  79 NE6       30.05S
MAPLE LAKE     MOSUNNY   44  41  89 N5        30.05S
$$
MNZ037-044-045-052-053-201400-
   East Central Minnesota

CITY           SKY/WX    TMP DP  RH WIND       PRES   REMARKS
PRINCETON      SUNNY     37  37 100 CALM      30.05S FOG
MORA           SUNNY     34  32  93 CALM      30.07S FOG
CAMBRIDGE      MOSUNNY   39  34  81 CALM      30.03F HAZE
RUSH CITY      FOG       35  34  96 CALM      30.06S VSB 1
HINCKLEY         N/A     34  34 100 CALM      30.06R FOG
CLOQUET        SUNNY     39  37  93 NW3       30.04F
MCGREGOR       SUNNY     37  37 100 CALM      30.06S
$$
MNZ071>073-080-081-089-090-097-098-201400-
   Southwest Minnesota

CITY           SKY/WX    TMP DP  RH WIND       PRES   REMARKS
MONTEVIDEO     SUNNY     43  36  75 CALM      30.04S
GRANITE FALLS  SUNNY     38  33  84 CALM      30.04S
CANBY          SUNNY     42  38  84 W6        30.04S
MARSHALL       SUNNY     43  36  75 W6        30.03S
REDWOOD FALLS  SUNNY     48  44  86 CALM      30.03R
OLIVIA         SUNNY     43  41  93 NE3       30.02S FOG
PIPESTONE      SUNNY     50  36  57 NE6       30.01S
WINDOM         SUNNY     54  39  58 N6        30.02R
WORTHINGTON    PTSUNNY   52  37  58 CALM      30.04R
JACKSON        CLOUDY    54  45  71 E6        30.02R THUNDER
TRACY          SUNNY     47  38  73 CALM      30.03S
SLAYTON        SUNNY     49  37  63 N5        30.03S
$$
MNZ065>067-074>077-082>085-091>093-201400-
   South Central Minnesota

CITY           SKY/WX    TMP DP  RH WIND       PRES   REMARKS
MANKATO        MOSUNNY   52  46  82 N5        30.03R
NEW ULM        MOSUNNY   52  46  82 CALM      30.03R THUNDER
ST JAMES       MOSUNNY   52  46  82 NW5       30.03R
FAIRMONT       CLOUDY    52  46  82 N3        30.03S
GLENCOE        SUNNY     49  43  80 NE3       30.03F
FARIBAULT      CLOUDY    55  52  88 SE3       30.04R HAZE
OWATONNA       PTSUNNY   55  50  82 S3        30.03S THUNDER
WASECA         CLOUDY    54  52  94 NE5       30.04S
ALBERT LEA     CLOUDY    55  48  76 S10       30.03S THUNDER
$$
MNZ078>079-086>088-094>096-201400-
   Southeast Minnesota

CITY           SKY/WX    TMP DP  RH WIND       PRES   REMARKS
ROCHESTER      CLOUDY    52  47  83 S10       30.05S
RED WING       PTSUNNY   52  50  93 CALM      30.04R FOG
STANTON        FOG       50  49  94 CALM      30.03R VSB 1/4
DODGE CENTER   PTSUNNY   57  48  72 S9        30.04R
WINONA           N/A    N/A N/A N/A MISG        N/A
AUSTIN         TSTM      54  48  82 SE8       30.05S
PRESTON        CLOUDY    54  46  75 SE5       30.08S
$$
ABBREVIATIONS USED IN REMARKS
   TC - TEMPERATURES IN CELSIUS
  WCI - WIND CHILL INDEX
   HX - HEAT INDEX
  VSB - VISIBILITY
$$


USA.gov is the U.S. government's official web portal to all federal, state and local government web resources and services.